FW2486 Weather Reports


time (UTC)temp
F
wind
direction
speed
knots
gust
knots
rain 1hr
in
rain 24hr
in
rain mn
in
humidity
%
barometer
mb
20260505223029 77 292 5.2 12.2 0.00 0.00 0.00 48 1015.5
20260505221606 77 271 4.3 10.4 0.00 0.00 0.00 48 1015.6
20260505220034 77 216 5.2 10.4 0.00 0.00 0.00 48 1015.7
20260505214534 77 202 5.2 9.6 0.00 0.00 0.00 49 1015.8
20260505213143 76 211 5.2 12.2 0.00 0.00 0.00 49 1015.9
20260505210030 75 212 5.2 11.3 0.00 0.00 0.00 50 1016.2
20260505204531 74 204 5.2 13.0 0.00 0.00 0.00 50 1016.2
20260505203037 74 214 5.2 11.3 0.00 0.00 0.00 51 1016.4
20260505201610 73 211 6.1 11.3 0.00 0.00 0.00 52 1016.5
20260505200041 72 204 6.1 18.2 0.00 0.00 0.00 53 1016.5
20260505194535 71 210 7.0 15.6 0.00 0.00 0.00 55 1016.6
20260505191642 70 218 5.2 8.7 0.00 0.00 0.00 56 1016.8
20260505190106 69 209 6.1 13.0 0.00 0.00 0.00 56 1016.9
20260505184535 68 207 6.1 13.0 0.00 0.00 0.00 58 1016.9
20260505183036 67 205 5.2 12.2 0.00 0.00 0.00 59 1017.0
20260505181611 67 204 7.0 13.9 0.00 0.00 0.00 59 1017.0
20260505174643 65 202 7.0 15.6 0.00 0.00 0.00 61 1017.1
20260505170106 63 206 7.8 13.9 0.00 0.00 0.00 63 1017.0
20260505164532 63 200 7.0 15.6 0.00 0.00 0.00 63 1017.0
20260505163149 63 205 7.0 18.2 0.00 0.00 0.00 62 1016.9
20260505161536 63 198 6.1 14.8 0.00 0.00 0.00 62 1016.9
20260505153028 62 200 6.1 15.6 0.00 0.00 0.00 63 1016.9
20260505124535 56 157 4.3 10.4 0.00 0.00 0.00 77 1016.2
20260505123032 57 175 4.3 9.6 0.00 0.00 0.00 77 1016.2
20260505120031 57 166 4.3 15.6 0.00 0.00 0.00 76 1016.1
20260505114532 58 184 4.3 11.3 0.00 0.00 0.00 75 1016.0
20260505113037 58 174 6.1 21.7 0.00 0.00 0.00 75 1015.9
20260505111531 58 193 10.4 18.2 0.00 0.00 0.00 75 1015.9
20260505101534 59 182 6.1 18.2 0.00 0.00 0.00 74 1015.4
20260505100045 60 178 7.0 19.1 0.00 0.00 0.00 73 1015.4
20260505094535 60 196 7.0 15.6 0.00 0.00 0.00 73 1015.3
20260505093037 60 191 7.0 20.0 0.00 0.00 0.00 73 1015.2
20260505091535 61 181 6.1 18.2 0.00 0.00 0.00 73 1015.1
20260505090030 61 183 5.2 16.5 0.00 0.00 0.00 72 1015.1
20260505084606 0 0 0.0 0.0 0.00 0.00 0.00 100
20260505083035 62 195 5.2 15.6 0.00 0.00 0.00 72 1014.8
20260505080036 62 181 4.3 11.3 0.00 0.00 0.00 72 1014.8
20260505074535 62 169 5.2 10.4 0.00 0.00 0.00 72 1014.8
20260505073036 63 181 5.2 14.8 0.00 0.00 0.00 72 1014.7
20260505071608 62 175 4.3 10.4 0.00 0.00 0.00 72 1014.6
20260505070031 62 156 4.3 9.6 0.00 0.00 0.00 71 1014.5
20260505064534 63 142 3.5 7.8 0.00 0.00 0.00 71 1014.4
20260505063033 0 0 0.0 0.0 0.00 0.00 0.00 100
20260505061535 0 0 0.0 0.0 0.00 0.00 0.00 100
20260505060036 63 159 2.6 8.7 0.00 0.00 0.00 67 1014.6
20260505054607 64 168 3.5 9.6 0.00 0.00 0.00 66 1014.5
20260505051537 64 187 6.1 13.0 0.00 0.00 0.00 64 1014.4
20260505041536 65 173 5.2 16.5 0.00 0.00 0.00 58 1013.9
20260505040048 67 178 3.5 5.2 0.00 0.00 0.00 54 1013.6
20260505034534 67 192 6.1 17.4 0.00 0.00 0.00 52 1013.3
20260505033030 68 197 7.0 15.6 0.00 0.00 0.00 50 1013.1
20260505031533 68 194 5.2 9.6 0.00 0.00 0.00 48 1012.9
20260505030037 69 192 3.5 10.4 0.00 0.00 0.00 47 1012.7
20260505024533 71 185 5.2 13.0 0.00 0.00 0.00 46 1012.5
20260505023030 72 187 4.3 10.4 0.00 0.00 0.00 46 1012.4
20260505021532 73 205 5.2 13.0 0.00 0.00 0.00 45 1012.4
20260505020036 74 197 7.0 14.8 0.00 0.00 0.00 43 1012.3
20260505014537 75 216 4.3 12.2 0.00 0.00 0.00 42 1012.2
20260505013033 76 207 4.3 13.9 0.00 0.00 0.00 41 1012.1
20260505011533 76 221 4.3 13.0 0.00 0.00 0.00 40 1012.1
20260505010037 77 225 6.1 12.2 0.00 0.00 0.00 38 1012.1
20260505004534 78 215 5.2 9.6 0.00 0.00 0.00 37 1012.1
20260505003032 79 224 5.2 13.0 0.00 0.00 0.00 35 1012.0
20260505001535 80 225 5.2 11.3 0.00 0.00 0.00 35 1011.9
20260505000042 80 234 6.1 17.4 0.00 0.00 0.00 34 1012.0
20260504233033 82 221 4.3 10.4 0.00 0.00 0.00 34 1011.8
20260504231534 82 229 7.0 12.2 0.00 0.00 0.00 33 1011.8
20260504230107 82 199 6.1 14.8 0.00 0.00 0.00 32 1011.8